Other Surface Observations
Issued by NWS

Home | Current Version | Previous Version | Text Only | Print | Product List | Glossary On
Versions: 1 2 3 4 5 6 7 8 9 10 11 12 13 14 15 16 17 18 19 20 21 22 23 24 25 26 27 28 29 30 31 32 33 34 35 36 37 38 39 40 41 42 43 44 45 46 47 48 49 50
000
SXUS52 KTAE 290818
OSOTAE
OSOTAE
North Florida/South Alabama/Southwest Georgia Weather Roundup
National Weather Service Tallahassee Florida
400 AM EDT FRI JUL 29 2016

Note: "fair" indicates few or no clouds below 12,000 feet with no
significant weather and/or obstructions to visibility.

!FLZ017-115-028-034-025-290900
...North Florida...

CITY           SKY/WX    TMP DP  RH WIND       PRES   REMARKS
TALLAHASSEE    CLEAR     77  75  93 SW3       30.02F
APALACHICOLA   CLEAR     77  77 100 CALM      30.02F
PERRY          CLEAR     77  74  89 NW5       30.03S
CROSS CITY       N/A     74  72  93 CALM      30.01F
JACKSONVILLE   CLEAR     76  74  93 W3        30.00F
$$

!FLZ112-006-005-002-011-290900
...Florida Panhandle...

CITY           SKY/WX    TMP DP  RH WIND       PRES   REMARKS
MARIANNA       CLEAR     77  75  93 CALM      30.01F
BONIFAY        NOT AVBL
PANAMA CITY NW FAIR      77  75  93 CALM      30.01F
TYNDALL AFB    CLEAR     83  75  75 W6        30.03R HX  90
TYND DRONE APT NOT AVBL
DE FUNIAK SPR  FAIR      76  75  96 CALM      30.04S
EGLIN AFB      PTCLDY    81  74  81 N2        30.02S
DESTIN         PTCLDY    87  76  69 SW5       30.02S HX  97
HURLBURT       CLEAR     84  74  70 N3        30.01S HX  91
CRESTVIEW      CLEAR     74  72  93 CALM      30.04S
PENSACOLA      CLEAR     82  75  79 SW3       30.02S
$$

!ALZ063-066-290900
...South Alabama...

CITY           SKY/WX    TMP DP  RH WIND       PRES   REMARKS
DOTHAN         CLEAR     78  75  90 W6        30.07S
OZARK CAIRNS   CLEAR     76  75  99 W3        30.03F
FT RUCKER HELI CLEAR     75  73  93 CALM      30.02F
RUCKER HELI 3  FAIR      76  73  92 SW5       30.05S
RUCKER HELI 2  FAIR      76  74  93 CALM      30.03S
FLORALA APT    CLEAR     73  72  96 CALM      30.05S
ANDALUSIA      CLEAR     78  73  84 CALM      30.04R
TROY           PTCLDY    73  73 100 CALM      30.04F
EUFALA         FAIR      77  72  84 W3        30.01F
MOBILE         MOCLDY    75  73  93 CALM      30.03S
$$

!GAZ120>161-290900
...Southwest and South Central Georgia...

CITY           SKY/WX    TMP DP  RH WIND       PRES   REMARKS
THOMASVILLE      N/A     77  77 100 W3        30.04S
BAINBRIDGE     CLEAR     77  73  88 CALM      30.03R
MOODY AFB      CLEAR     78  73  83 W7        30.01F
VALDOSTA       CLEAR     77  75  93 CALM      30.01F
MOULTRIE       CLEAR     77  73  88 CALM      30.03S
BLAKELY        CLEAR     79  73  83 CALM      30.03S
ALBANY         CLEAR     77  73  87 W3        30.03F
TIFTON         FAIR      78  74  88 W5        30.02S
FITZGERALD     FAIR      82  77  85 W5        30.04R
CORDELE        FAIR      81  74  79 W5        30.03R
AMERICUS       FAIR      77  68  73 W5        30.04R
HOMERVILLE     FAIR      79  73  83 W3        30.02S
$$

!GMZ750-755-770-775-290900
...Coastal and Buoy Obs...

STATION/POSITION TIME  TEMP    WIND        PRES    VSBY  WAVE
                       AIR SEA DIR/SP/G                  HT/PER
                 (UTC) (F)     (DEG/KT/KT) (MB)    (MI)  (FT/S)
KEATON BEACH     0800   86     280/  8/ 11 1016.1F
CEDAR KEY        0800   85     350/  1/  2 1016.8F
C TOWER          0800   84     280/  6/  7 1017.3F
APALACHICOLA BUO 0750   86 87   CALM  /  2 1016.6F         1/ 5
PANAMA CITY BUOY 0650   85 87  190/  4/  6 1017.2          2/ 5
MOBILE BUOY      0800   85 88  170/  8/ 10 1016.0F
ORANGE BCH AL BU 0750   85 87  210/ 10/ 12 1016.6F         2/ 6
$$




USA.gov is the U.S. government's official web portal to all federal, state and local government web resources and services.